This demonstration page uses our WeatherBlox Daily Observations layout. Learn more.

Left ArrowRight Arrow

40.92945, -100.16068

Hourly Observations for July 29, 2019

Temp ( °F °C ) Dew Point ( °F °C ) Humidity (%) Winds ( mph kmh ) Pressure ( in mb ) Visibility ( mi km ) Precip ( " mm )
12:15 am 00:15 Clear 68 20.1 65 18.6 91 91 N 8 13 29.97 1015 10 16 N/A
12:35 am 00:35 Clear 69 20.3 65 18.4 89 89 N 6 9 29.97 1015 10 16 N/A
12:55 am 00:55 Clear 69 20.7 65 18.3 86 86 N 7 11 29.98 1015 10 16 N/A
1:15 am 01:15 Clear 69 20.6 65 18.3 87 87 NNE 9 15 29.98 1015 10 16 N/A
1:35 am 01:35 Clear 69 20.6 65 18.4 87 87 NNE 7 11 29.99 1015 10 16 N/A
1:55 am 01:55 Clear 68 20 65 18.2 89 89 NNE 7 11 29.98 1015 10 16 N/A
2:15 am 02:15 Clear 67 19.2 64 18 93 93 N 6 9 29.99 1016 10 16 N/A
2:35 am 02:35 Clear 65 18.2 64 17.5 96 96 N 5 7 30.01 1016 10 16 N/A
2:55 am 02:55 Clear 64 18 63 17.3 96 96 N 5 7 30.01 1016 10 16 N/A
3:15 am 03:15 Clear 63 17.3 62 16.8 97 97 NNW 5 7 30.02 1016 10 16 N/A
3:35 am 03:35 Clear 63 17.3 62 16.8 97 97 N N/A 30.02 1016 10 16 N/A
3:55 am 03:55 Clear 61 16.1 60 15.7 97 97 WNW 5 7 30.04 1017 10 16 N/A
4:15 am 04:15 Clear 60 15.8 60 15.5 98 98 WNW 6 9 30.05 1018 10 16 N/A
4:35 am 04:35 Clear 59 15.2 59 14.8 97 97 NW 6 9 30.05 1018 10 16 N/A
4:55 am 04:55 Clear 59 15 58 14.7 98 98 NW 7 11 30.06 1018 10 16 N/A
5:15 am 05:15 Clear 59 15.2 59 14.8 97 97 NW 7 11 30.06 1018 10 16 N/A
5:35 am 05:35 Clear 59 15.2 58 14.7 97 97 NNW 6 9 30.06 1018 10 16 N/A
5:55 am 05:55 Clear 58 14.6 58 14.3 98 98 N N/A 30.07 1018 10 16 N/A
6:15 am 06:15 Clear 58 14.7 58 14.3 97 97 NW 3 6 30.07 1018 10 16 N/A
6:35 am 06:35 Sunny 57 14 57 13.9 99 99 WNW 5 7 30.08 1019 10 16 N/A
6:55 am 06:55 Sunny 57 13.8 57 13.7 99 99 NW 3 6 30.09 1019 10 16 N/A
7:15 am 07:15 Sunny 58 14.5 58 14.4 99 99 WNW 3 6 30.08 1019 10 16 N/A
7:35 am 07:35 Sunny 60 15.5 59 15.1 97 97 W 3 6 30.08 1019 7 11 N/A
7:55 am 07:55 Sunny 62 16.4 60 15.8 96 96 N N/A 30.07 1018 10 16 N/A
8:15 am 08:15 Sunny 64 17.5 61 16.2 92 92 W 5 7 30.06 1018 10 16 N/A
8:35 am 08:35 Partly Cloudy 65 18.5 62 16.8 90 90 WNW 5 7 30.06 1018 10 16 N/A
8:55 am 08:55 Mostly Cloudy 67 19.4 63 17.4 88 88 NW 3 6 30.06 1018 10 16 N/A
9:15 am 09:15 Partly Cloudy 68 20.1 64 17.6 86 86 NW 3 6 30.05 1018 10 16 N/A
9:35 am 09:35 Partly Cloudy 70 21.3 64 17.6 80 80 W 3 6 30.04 1017 10 16 N/A
9:55 am 09:55 Sunny 73 22.5 64 17.6 74 74 W 5 7 30.04 1017 10 16 N/A
10:15 am 10:15 Mostly Cloudy 74 23.1 62 16.7 67 67 WSW 3 6 30.04 1017 10 16 N/A
10:35 am 10:35 Partly Cloudy 75 24 62 16.5 63 63 W 3 6 30.03 1017 10 16 N/A
10:55 am 10:55 Sunny 76 24.7 62 16.5 60 60 N N/A 30.02 1017 10 16 N/A
11:15 am 11:15 Sunny 78 25.7 57 13.7 48 48 N N/A 30.01 1016 10 16 N/A
11:35 am 11:35 Sunny 79 26.1 56 13.4 46 46 N N/A 30.01 1016 10 16 N/A
11:55 am 11:55 Sunny 80 26.9 57 13.7 44 44 N N/A 30.00 1016 10 16 N/A
12:15 pm 12:15 Sunny 81 27 55 12.8 41 41 SE 3 6 30.00 1016 10 16 N/A
12:35 pm 12:35 Sunny 81 27.3 54 12.3 39 39 N N/A 29.99 1016 10 16 N/A
12:55 pm 12:55 Sunny 82 27.5 55 12.6 40 40 ENE 5 7 29.98 1015 10 16 N/A
1:15 pm 13:15 Sunny 82 28 56 13.4 41 41 N 3 6 29.97 1015 10 16 N/A
1:35 pm 13:35 Partly Cloudy 80 26.6 56 13.5 44 44 E 5 7 29.99 1015 10 16 N/A
1:55 pm 13:55 Partly Cloudy 82 27.8 56 13.1 40 40 SE 6 9 29.98 1015 10 16 N/A
2:15 pm 14:15 Sunny 82 27.7 56 13.2 41 41 N N/A 29.98 1015 10 16 N/A
2:35 pm 14:35 Sunny 83 28.2 58 14.6 43 43 E 5 7 29.96 1015 10 16 N/A
2:55 pm 14:55 Sunny 83 28.1 55 12.8 39 39 SE 5 7 29.96 1015 10 16 N/A
3:15 pm 15:15 Sunny 83 28.4 57 13.7 40 40 E 6 9 29.95 1014 10 16 N/A
3:35 pm 15:35 Partly Cloudy 83 28.5 57 13.9 41 41 NE 5 7 29.95 1014 10 16 N/A
3:55 pm 15:55 Mostly Cloudy 84 29 56 13.5 39 39 E 9 15 29.95 1014 10 16 N/A
4:15 pm 16:15 Mostly Cloudy 84 28.7 56 13.1 38 38 ENE 5 7 29.94 1014 10 16 N/A
4:35 pm 16:35 Sunny 83 28.6 58 14.3 42 42 E 10 17 29.92 1013 10 16 N/A
4:55 pm 16:55 Sunny 83 28.5 59 14.8 43 43 E 9 15 29.92 1013 10 16 N/A
5:15 pm 17:15 Sunny 83 28.3 59 14.9 44 44 ENE 7 11 29.92 1013 10 16 N/A
5:35 pm 17:35 Partly Cloudy 81 27.4 58 14.2 44 44 E 3 6 29.94 1014 10 16 N/A
5:55 pm 17:55 Partly Cloudy 83 28.2 58 14.2 42 42 SE 8 13 29.93 1014 10 16 N/A
6:15 pm 18:15 Sunny 82 28 60 15.6 47 47 S 10 17 29.92 1013 10 16 N/A
6:35 pm 18:35 Sunny 82 27.6 60 15.4 47 47 S 10 17 29.93 1013 10 16 N/A
6:55 pm 18:55 Sunny 81 27.4 61 16.1 50 50 SSE 8 13 29.91 1013 10 16 N/A
7:15 pm 19:15 Sunny 80 26.8 60 15.7 51 51 SSE 7 11 29.92 1013 10 16 N/A
7:35 pm 19:35 Partly Cloudy 80 26.5 61 16.1 53 53 SSE 6 9 29.94 1014 10 16 N/A
7:55 pm 19:55 Mostly Cloudy 78 25.3 61 16 56 56 SSE 7 11 29.95 1014 7 11 N/A
8:15 pm 20:15 Mostly Cloudy 78 25.5 61 16.3 57 57 SE 7 11 29.94 1014 10 16 N/A
8:35 pm 20:35 Partly Cloudy 75 23.7 62 16.8 65 65 SE 7 11 29.95 1014 10 16 N/A
8:55 pm 20:55 Sunny 73 22.5 62 16.6 69 69 SE 5 7 29.97 1015 10 16 N/A
9:15 pm 21:15 Clear 73 22.6 60 15.4 64 64 SE 7 11 29.97 1015 10 16 N/A
9:35 pm 21:35 Clear 72 22.4 60 15.4 65 65 SE 6 9 29.97 1015 10 16 N/A
9:55 pm 21:55 Partly Cloudy 70 20.9 61 16 74 74 ESE 5 7 29.99 1016 10 16 N/A
10:15 pm 22:15 Clear 71 21.9 63 17 74 74 ESE 5 7 30.01 1016 10 16 N/A
10:35 pm 22:35 Clear 71 21.4 62 16.7 75 75 SE 6 9 30.02 1017 10 16 N/A
10:55 pm 22:55 Clear 69 20.7 63 17 79 79 E 7 11 30.03 1017 10 16 N/A
11:15 pm 23:15 Clear 67 19.2 64 17.6 91 91 E 5 7 30.04 1017 10 16 N/A
11:35 pm 23:35 Clear 67 19.5 63 17.1 86 86 ESE 5 7 30.04 1017 10 16 N/A
11:55 pm 23:55 Clear 68 20.1 62 16.9 82 82 SE 6 9 30.02 1017 10 16 N/A

Powered by AerisWeather